Location: Dion R Holm Powerhouse
(37.8966°N, 119.9688°W)
Time: 15:15:15
(UTC+00:00)

USA 234 - Pass Details

Date: 13 June 2024
Orbit: 1100 x 1107 km, 123.0° (Epoch: 08 July)

Event Time Altitude Azimuth Distance (km) Brightness Sun altitude
Rises 11:57:51 0° 126° (SE) 3,915 6.4 -7.2°
Reaches altitude 10° 12:00:19 10° 124° (SE) 2,958 5.8 -6.9°
Maximum altitude 12:06:49 72° 42° (NE) 1,154 3.7 -5.8°
Drops below altitude 10° 12:13:20 10° 319° (NW) 2,965 5.5 -4.8°
Sets 12:15:50 0° 317° (NW) 3,924 6.1 -4.4°
